Temperature
20 21 21 21 21 21 22 24 24 23 23 22 21 21 21 21 20 17 15 13 13 13 13 12 12 11 10 10 10 10 9 9 8 8 7 7 6 6 6 6 6 6 6 6 6 6 6 6 6
20 20 21 22 21 21 23 24 24 22 21 20 20 20 21 20 19 17 15 13 13 12 12 12 12 11 11 10 10 10 9 9 8 8 7 7 7 6 6 6 6 6 6 6 6 6 6 6 6
21 21 22 22 21 22 23 24 23 21 20 20 20 20 20 19 18 18 16 15 13 12 12 12 12 11 11 10 10 10 10 9 9 8 8 7 7 7 6 6 6 6 6 6 6 6 6 6 7
21 21 23 22 22 24 25 24 23 21 20 20 20 20 19 17 17 17 17 15 14 12 12 12 12 11 11 10 10 10 10 9 9 9 8 8 7 7 7 7 7 7 6 6 6 6 6 7 7
21 22 22 22 23 25 25 24 23 22 21 20 20 20 19 18 17 17 17 15 14 12 12 12 11 11 11 10 10 10 10 10 9 9 9 8 8 8 8 7 7 7 7 7 7 7 7 7 7
22 23 21 21 23 25 25 24 23 23 23 22 20 19 19 17 18 17 16 15 13 12 12 12 11 11 11 10 10 10 10 10 10 9 9 9 9 8 8 8 8 7 7 7 7 7 7 7 7
22 21 21 22 23 24 25 23 23 23 22 22 20 20 18 17 17 17 16 14 13 12 11 12 11 11 10 10 10 10 10 10 10 9 9 9 9 8 8 8 8 8 7 7 7 7 7 7 7
21 21 21 21 22 23 24 22 21 21 22 22 20 20 19 17 17 16 15 13 12 11 11 11 11 11 11 10 10 10 10 9 10 9 9 9 9 8 8 8 8 8 7 7 7 7 7 7 7
21 20 20 21 22 23 23 22 21 20 20 20 20 19 18 17 17 16 14 13 12 11 11 11 11 11 11 10 10 10 10 9 9 9 9 9 9 8 8 8 8 7 7 7 7 7 7 7 7
22 19 21 23 23 22 22 22 22 20 19 19 19 18 17 16 16 16 16 15 14 13 12 11 10 10 10 10 10 10 10 9 9 9 9 9 8 8 8 8 7 7 7 7 7 7 7 7 7
22 21 22 23 22 21 20 21 21 20 18 20 20 19 17 17 16 16 16 16 16 15 13 12 11 10 9 9 9 10 10 10 9 9 9 8 8 8 8 8 7 7 7 7 7 7 7 6 6
22 21 22 22 21 19 19 19 20 20 20 20 21 20 19 17 17 17 16 16 15 14 14 13 12 10 10 9 9 9 10 10 10 9 9 9 8 8 8 7 7 7 7 7 7 6 6 6 6
21 20 22 21 20 19 18 18 18 19 20 20 20 20 19 18 18 18 17 16 15 15 14 14 12 11 10 10 10 9 9 9 9 9 9 9 8 8 8 7 7 7 7 7 6 6 6 6 5
21 20 20 21 21 20 18 18 18 19 20 20 20 20 19 18 17 17 16 15 15 15 14 14 13 12 11 10 10 10 9 9 9 9 9 8 8 8 7 7 7 7 6 6 6 6 5 5 5
19 18 19 20 21 20 18 16 18 20 21 20 20 20 19 18 17 16 16 16 16 15 15 14 14 13 12 11 11 10 10 9 9 9 9 9 8 8 7 7 7 7 6 6 6 5 5 5 5
19 19 19 22 20 18 17 16 20 22 22 22 21 21 20 19 18 17 16 16 15 14 14 14 13 13 12 12 11 11 10 10 10 9 9 9 8 8 7 7 7 7 6 6 6 5 5 5 5
20 19 20 21 20 19 17 16 19 21 22 22 22 22 21 20 19 18 17 16 15 14 13 13 13 13 13 12 12 11 10 10 10 10 9 9 9 8 8 7 7 7 6 6 6 5 5 5 4
19 19 19 19 21 20 18 18 20 21 22 22 22 22 22 21 21 20 18 17 16 14 13 13 12 12 12 11 11 10 10 10 9 9 9 9 9 9 8 8 7 7 6 6 6 5 5 5 4
19 18 18 19 21 19 18 18 19 20 21 21 21 21 21 21 21 20 19 18 16 15 13 13 12 12 12 12 11 11 11 11 10 10 10 9 9 9 9 8 8 7 7 6 6 5 5 4 4
18 18 18 19 20 19 18 18 19 21 22 22 21 20 20 19 19 20 19 18 16 15 14 13 12 12 13 13 13 13 12 12 11 10 10 10 9 9 9 9 8 8 7 6 6 5 5 4 3
19 18 18 17 17 18 18 18 21 22 22 21 21 20 19 18 18 18 18 17 16 15 15 14 13 12 12 12 11 11 10 9 9 10 11 10 10 9 9 9 8 8 7 7 6 6 5 4 3
18 19 17 17 16 16 18 15 19 21 20 19 19 19 18 18 17 17 17 17 16 15 15 14 13 12 12 11 11 11 11 12 13 12 12 11 10 9 9 8 8 7 7 6 6 5 5 4 3
18 17 16 16 15 15 17 17 18 21 19 18 18 18 18 17 17 17 16 16 16 15 14 13 13 12 11 11 11 10 11 12 11 10 10 9 9 9 8 8 7 6 6 5 5 4 4 4 3
17 16 16 16 15 15 19 18 18 20 19 19 18 19 18 17 17 16 16 16 15 15 14 14 13 12 11 11 10 10 10 10 10 9 9 9 8 8 8 7 6 6 5 4 4 3 2 2 2
16 16 17 16 15 17 18 18 17 20 19 19 19 18 18 17 16 15 15 15 15 14 14 14 13 13 12 11 10 10 10 9 9 9 8 8 7 7 7 6 6 5 5 4 3 2 1 1 1
18 17 16 16 16 17 19 17 18 20 20 20 19 18 17 16 15 15 14 14 14 14 14 14 13 13 12 11 11 10 10 9 9 9 8 8 7 7 6 5 5 5 4 3 2 1 1 0 0
17 17 17 16 16 16 17 19 21 21 19 19 19 18 16 15 15 14 14 14 14 14 14 13 13 13 13 12 12 11 11 10 10 9 9 8 8 7 6 5 4 4 3 3 2 1 0 -0 -1
16 16 16 15 15 15 17 18 19 20 19 19 18 17 16 15 14 14 14 14 14 13 13 13 13 13 13 12 12 11 11 10 10 9 9 9 8 7 6 5 4 3 3 2 1 0 -0 -1 -1
14 15 15 15 16 15 14 16 20 19 19 18 17 16 15 15 14 14 13 13 13 13 13 13 12 12 12 12 11 11 11 10 10 9 9 9 8 7 6 5 4 4 3 2 1 0 -1 -1 -2
17 17 16 15 15 16 14 16 20 20 19 18 17 16 15 14 14 13 13 13 12 12 12 12 12 11 11 11 10 10 10 10 9 9 9 8 8 7 6 5 4 3 2 2 1 0 -1 -2 -2
Wind_Speed
9 12 8 3 4 5 8 3 4 5 4 5 5 3 6 6 4 4 7 10 14 18 22 21 20 18 16 14 13 12 11 11 10 11 11 11 11 12 12 13 13 14 14 15 15 16 17 17 18
10 8 5 4 5 7 4 5 6 8 7 5 3 2 3 3 7 10 8 11 18 20 23 21 21 19 17 15 14 13 12 11 10 10 10 10 10 11 11 11 12 12 13 13 14 15 15 16 17
8 8 4 4 7 8 3 8 10 8 7 4 4 3 4 6 11 11 9 13 17 19 22 22 22 20 18 16 15 13 12 11 10 10 10 9 9 9 10 10 10 11 11 12 12 13 14 15 16
5 4 5 6 11 6 2 6 9 8 5 3 4 4 4 7 7 11 13 13 13 15 22 23 22 20 18 17 15 14 13 12 10 10 9 9 8 9 9 9 9 9 10 10 11 12 13 13 14
4 4 6 9 12 7 2 7 5 3 7 8 6 5 7 6 11 15 14 12 13 13 21 23 22 21 19 17 16 15 13 12 11 10 9 9 8 8 8 7 7 8 8 9 9 10 11 12 13
4 5 7 9 10 4 2 8 6 4 6 7 8 6 5 8 12 14 13 11 11 12 20 23 22 21 20 18 17 16 14 13 12 10 9 8 8 7 7 6 6 6 6 7 7 8 9 10 11
4 5 8 11 11 8 4 7 2 3 7 5 10 4 7 8 11 13 12 10 11 15 18 21 21 20 20 19 18 17 15 14 13 11 10 9 8 7 6 5 5 4 4 5 5 6 7 8 9
3 5 9 10 11 8 3 4 2 4 6 1 9 6 4 11 12 12 11 10 10 10 12 19 20 20 19 19 19 18 17 15 14 12 11 10 8 7 6 5 5 4 3 3 3 4 5 5 6
3 4 8 10 8 7 4 1 2 2 5 3 4 1 7 17 14 13 10 10 10 11 9 14 19 20 20 19 19 19 18 17 15 14 13 11 10 11 9 7 6 4 2 1 0 2 3 3 3
4 5 9 8 7 7 8 7 5 4 7 8 8 7 11 15 14 15 15 15 15 15 13 9 14 19 20 20 19 18 17 17 16 16 15 14 14 12 10 10 7 6 5 4 3 3 4 4 3
5 7 9 8 6 6 7 9 9 9 11 12 12 14 16 15 16 17 17 17 16 15 13 12 11 17 18 15 18 17 17 17 18 19 20 17 14 10 9 10 10 9 8 9 8 8 8 4 1
6 10 10 7 4 2 6 8 9 12 13 10 9 6 19 19 20 20 20 17 15 14 15 13 12 12 16 16 15 16 15 16 17 19 21 18 13 12 13 13 15 15 14 12 9 10 8 5 4
9 10 9 6 5 7 10 12 11 16 15 12 12 9 18 20 19 18 17 15 15 17 17 15 12 11 13 13 13 14 14 15 17 18 19 19 14 11 12 13 14 14 13 12 10 10 8 6 5
7 9 11 11 10 7 9 12 8 15 12 13 13 12 15 19 18 16 17 18 18 18 18 17 16 13 14 11 10 11 15 16 18 18 20 20 18 15 13 12 12 13 14 13 12 10 7 6 6
5 8 12 12 11 5 4 10 10 18 13 13 12 13 14 16 17 18 18 18 17 16 18 18 17 13 13 11 12 14 15 17 16 18 22 22 20 18 15 11 11 14 15 14 11 10 7 5 5
6 6 7 3 8 6 1 11 10 10 9 12 12 12 13 16 18 18 16 16 15 13 16 18 17 16 15 12 12 13 16 16 16 18 21 23 23 21 17 11 10 16 16 14 8 5 5 5 5
7 6 9 7 6 7 7 13 14 12 14 14 12 12 12 13 18 18 18 17 16 14 14 16 16 17 16 12 12 13 14 15 17 19 19 22 24 23 19 14 14 17 14 11 8 6 6 6 6
9 10 10 11 6 6 9 16 21 14 12 11 9 8 8 10 12 15 18 17 15 14 14 15 15 15 14 11 9 9 10 9 15 17 19 21 23 24 21 15 16 17 9 8 7 8 7 6 5
8 10 13 14 7 5 11 18 21 17 9 7 7 6 5 5 6 7 14 14 14 13 13 15 16 16 14 13 13 13 13 10 9 12 19 22 23 24 22 15 14 14 10 11 10 8 8 8 5
8 11 13 11 8 11 14 17 17 9 1 3 5 7 8 8 7 2 8 12 13 14 13 14 15 16 15 13 12 9 9 8 9 8 15 22 23 24 24 17 11 12 11 12 13 10 8 8 8
10 9 9 9 11 10 8 10 5 4 8 9 9 9 9 8 8 7 3 8 10 12 13 13 14 15 15 13 7 7 7 6 9 11 13 15 22 24 23 21 16 12 13 14 15 13 14 11 10
8 4 6 9 8 6 7 6 8 2 9 11 10 10 9 9 7 6 3 4 8 10 11 12 12 13 14 13 11 12 13 16 16 11 11 12 19 21 24 21 20 14 13 14 15 16 12 10 9
5 6 8 8 7 7 6 5 8 1 7 8 8 8 8 7 7 5 3 1 4 7 9 10 11 12 12 14 15 14 15 14 9 9 11 13 13 17 20 21 17 15 14 15 14 15 14 14 12
7 8 11 6 3 5 3 4 6 2 6 6 7 7 8 8 8 6 4 2 1 3 6 8 9 10 11 13 14 16 17 14 11 12 12 12 11 13 17 17 16 15 14 15 15 14 16 15 14
5 5 4 1 4 4 3 3 7 0 7 7 5 5 8 9 9 8 7 5 2 1 4 6 8 9 10 11 14 15 16 14 15 14 12 12 11 12 15 17 18 17 16 13 13 15 15 16 15
4 3 4 4 5 6 4 5 6 1 5 7 6 6 8 9 9 9 8 6 4 1 2 5 8 9 9 11 12 12 13 12 13 14 13 13 12 12 12 17 18 19 17 17 15 15 15 14 16
4 2 2 3 6 6 6 6 6 3 5 5 5 7 8 8 8 8 8 7 6 4 1 3 5 7 9 10 11 11 12 13 14 13 13 13 12 10 12 15 17 18 18 18 17 16 17 15 16
4 6 3 4 4 5 7 7 2 2 3 4 5 6 8 8 7 7 6 6 4 3 1 2 4 6 8 9 9 10 11 13 13 12 14 14 14 12 12 13 15 16 17 18 17 15 14 17 16
6 4 5 5 5 3 5 6 3 5 3 3 5 7 7 7 5 5 6 6 6 5 4 2 3 5 6 7 8 9 10 11 11 12 14 14 13 13 14 14 15 16 18 18 19 19 17 19 18
1 4 5 4 6 5 6 8 6 3 4 5 7 6 6 6 4 4 6 7 7 7 6 5 4 3 5 6 7 8 9 9 10 12 13 12 13 13 14 14 15 16 17 18 20 20 20 20 20
Wind_Direction
264 248 237 252 250 248 263 91 82 100 91 62 52 348 332 359 18 132 175 167 136 143 148 155 154 152 147 142 136 130 123 116 109 103 96 91 85 80 76 72 68 64 61 58 55 52 51 50 48
276 253 247 245 256 270 277 87 85 73 78 91 93 281 274 92 101 124 162 149 144 146 149 158 157 155 152 149 144 138 132 125 119 112 105 97 92 86 80 76 71 67 63 60 56 52 50 48 46
272 262 251 238 251 265 351 65 78 87 99 149 176 219 297 94 128 147 156 144 149 149 153 157 159 158 157 155 151 146 140 134 128 122 114 106 99 93 86 80 74 69 65 61 56 52 49 46 44
263 237 243 250 267 280 42 68 90 123 140 214 241 195 144 92 124 142 143 152 150 151 150 155 162 162 162 160 157 153 148 143 138 131 124 116 108 101 93 86 79 73 67 62 57 51 47 44 41
233 251 247 258 263 269 123 96 100 202 179 186 214 255 141 108 107 127 145 162 156 153 148 158 166 167 166 166 163 160 156 152 147 142 135 128 120 112 104 96 87 77 71 63 56 50 45 41 38
258 259 266 270 280 306 109 125 146 224 256 176 174 247 128 136 133 140 155 169 160 154 150 161 171 171 171 171 170 167 164 161 157 153 147 141 134 126 120 110 98 85 75 66 57 49 41 37 35
305 292 284 291 299 308 343 108 160 242 267 213 155 208 134 170 151 145 158 172 165 158 153 160 173 175 176 177 176 174 172 170 166 163 159 154 149 143 136 129 118 101 83 69 56 44 35 31 30
313 297 284 284 290 306 34 95 43 324 291 309 150 211 160 167 145 145 157 177 172 160 161 161 173 176 178 180 181 180 179 177 175 172 168 166 164 161 162 158 146 132 109 82 54 32 20 17 21
272 260 270 281 304 328 49 164 184 111 304 276 187 158 89 129 141 149 161 184 182 174 174 169 174 177 178 180 186 183 183 183 181 177 178 177 180 181 184 175 166 169 170 163 38 348 341 332 337
229 257 269 293 333 335 330 303 284 200 227 243 214 141 128 140 157 170 178 187 190 186 183 180 180 177 177 183 180 179 183 183 179 177 181 190 207 196 181 169 180 194 206 218 229 265 275 293 334
252 256 279 307 345 348 311 293 275 256 250 235 226 190 161 166 175 187 193 194 194 188 184 185 187 177 177 177 169 178 182 179 187 186 181 195 207 178 162 169 190 203 215 225 222 242 246 261 311
254 278 287 299 0 317 282 282 280 250 246 251 271 225 167 178 188 195 199 198 192 189 190 187 186 179 177 175 174 178 180 178 188 196 183 189 194 182 186 192 190 199 206 216 216 229 230 229 244
263 266 279 285 270 252 264 269 276 266 260 256 248 232 174 190 198 203 203 199 193 193 191 190 186 182 178 176 180 183 182 180 185 192 192 188 187 191 194 201 201 200 203 199 214 230 227 218 236
311 320 296 274 254 246 257 269 265 263 251 246 237 224 191 196 201 203 205 204 199 196 192 189 190 185 180 181 182 187 186 184 186 189 196 196 192 193 197 198 202 203 206 204 209 222 221 221 226
300 284 276 249 222 216 283 276 239 253 248 245 236 221 206 201 200 208 208 207 203 195 190 188 190 186 183 185 188 191 191 188 190 190 196 201 200 197 196 196 199 203 206 206 208 223 220 224 227
233 255 267 230 166 138 159 272 260 302 296 257 238 226 212 207 205 209 208 205 203 193 188 187 190 191 189 188 191 194 194 194 195 195 195 200 202 201 197 196 201 201 201 199 197 205 201 215 218
224 269 308 346 167 180 205 267 282 287 282 272 255 237 226 217 210 207 203 199 196 193 186 185 186 189 191 188 191 197 199 200 199 198 197 200 201 202 200 198 201 200 197 194 200 197 199 209 215
333 329 318 313 290 249 256 278 294 299 288 283 280 267 243 236 223 204 197 192 187 187 184 183 185 188 188 188 191 198 208 206 202 200 201 200 202 202 202 203 201 198 194 195 197 201 200 204 208
327 305 296 294 314 340 286 288 295 302 308 326 333 332 322 285 273 205 183 178 174 178 182 184 187 189 189 194 198 202 209 208 206 204 203 202 201 201 203 205 203 201 200 200 197 193 200 205 191
286 286 288 297 342 324 288 288 287 281 59 31 19 19 10 357 346 354 154 164 172 178 186 188 191 192 195 200 201 202 202 207 211 209 210 206 204 203 206 206 204 203 203 202 200 196 196 200 188
278 285 310 325 325 280 287 303 310 107 84 69 57 48 36 25 11 11 107 160 171 182 189 196 195 195 197 194 188 194 201 208 214 215 216 211 209 207 208 209 208 206 205 209 205 199 196 203 199
288 353 334 316 320 308 329 306 296 120 75 62 54 50 43 32 32 25 29 163 186 194 190 194 195 196 194 191 198 198 207 216 219 217 215 213 214 214 212 210 210 210 210 211 209 206 202 194 201
297 332 284 279 288 286 251 235 280 116 74 68 61 56 56 43 39 30 10 241 206 193 190 192 196 200 195 197 203 209 220 226 225 219 220 218 217 218 217 214 212 214 215 214 210 209 205 206 204
297 290 263 227 267 264 214 213 286 33 86 83 69 58 50 41 36 28 22 9 258 194 189 191 200 209 203 203 208 214 224 227 226 225 226 223 221 219 218 216 216 217 218 216 213 211 210 210 210
244 302 323 253 225 232 133 245 256 140 100 108 96 59 47 36 29 20 16 7 345 232 208 201 208 220 216 213 216 221 225 228 233 233 232 229 229 225 219 216 219 220 219 216 212 214 215 212 210
314 320 324 306 303 319 300 246 253 190 126 131 125 82 54 45 34 22 15 12 6 339 218 208 215 225 223 222 225 227 227 229 237 236 235 236 236 231 218 215 218 219 217 218 215 218 218 216 216
288 241 54 317 284 269 257 248 251 163 127 112 85 65 60 52 41 26 17 15 14 14 323 216 221 227 226 227 230 232 232 233 237 237 237 241 242 235 220 215 217 217 216 216 215 221 220 218 219
290 328 303 249 278 290 284 282 282 44 28 50 36 57 68 59 42 25 12 5 2 2 304 219 219 227 229 227 230 237 236 237 239 238 239 240 241 237 229 221 218 216 216 215 217 221 218 218 220
177 208 229 260 273 272 287 273 342 347 13 25 37 74 80 68 41 14 3 356 353 353 340 294 249 238 238 235 236 241 243 242 241 242 244 243 241 237 235 229 223 219 218 215 217 220 216 220 221
164 244 238 247 263 263 280 276 282 301 57 49 57 72 83 72 39 8 3 353 351 347 338 329 311 284 261 249 247 249 251 249 247 249 249 245 243 239 237 233 230 226 222 217 218 220 219 219 220
Height
1536 1538 1540 1542 1542 1542 1537 1528 1527 1532 1535 1539 1541 1542 1542 1542 1546 1554 1553 1552 1553 1554 1555 1558 1560 1562 1564 1565 1566 1567 1567 1568 1568 1568 1568 1568 1568 1568 1568 1567 1567 1566 1565 1564 1564 1563 1562 1560 1559
1536 1539 1542 1541 1542 1546 1535 1526 1528 1532 1537 1540 1542 1543 1543 1543 1544 1547 1548 1550 1551 1552 1553 1556 1559 1561 1562 1564 1565 1566 1566 1567 1567 1567 1567 1567 1567 1567 1567 1567 1566 1565 1565 1564 1563 1563 1562 1561 1559
1537 1540 1542 1538 1539 1540 1532 1527 1530 1535 1538 1540 1542 1542 1542 1543 1542 1544 1546 1547 1549 1551 1552 1554 1557 1559 1561 1562 1564 1565 1566 1566 1566 1567 1567 1567 1567 1566 1566 1566 1565 1565 1564 1564 1563 1562 1562 1561 1560
1539 1541 1539 1537 1536 1525 1523 1525 1530 1535 1538 1540 1540 1541 1541 1541 1541 1542 1543 1545 1547 1549 1550 1552 1555 1557 1559 1561 1562 1563 1564 1565 1565 1566 1566 1566 1566 1565 1565 1565 1565 1564 1564 1563 1563 1562 1561 1561 1560
1539 1539 1538 1538 1531 1521 1519 1523 1529 1532 1535 1537 1539 1538 1538 1538 1539 1540 1542 1543 1545 1547 1548 1550 1553 1555 1557 1559 1560 1562 1563 1564 1564 1565 1565 1565 1565 1565 1565 1564 1564 1564 1563 1563 1562 1562 1561 1561 1560
1540 1536 1541 1539 1527 1518 1518 1521 1526 1530 1531 1532 1535 1537 1536 1535 1536 1537 1540 1542 1544 1545 1546 1547 1551 1553 1555 1557 1558 1560 1561 1562 1563 1563 1564 1564 1564 1564 1564 1564 1563 1563 1563 1562 1562 1561 1561 1560 1559
1540 1538 1539 1535 1529 1523 1519 1522 1525 1527 1528 1529 1531 1534 1532 1533 1533 1534 1537 1539 1542 1543 1544 1544 1548 1550 1552 1554 1556 1557 1559 1560 1561 1562 1562 1562 1563 1563 1563 1562 1562 1562 1562 1562 1561 1561 1560 1559 1559
1539 1538 1538 1534 1530 1524 1521 1523 1526 1527 1527 1528 1528 1530 1528 1529 1530 1531 1534 1537 1539 1540 1541 1541 1544 1546 1549 1551 1553 1555 1556 1557 1559 1559 1560 1561 1561 1561 1561 1561 1561 1561 1561 1561 1560 1560 1559 1559 1558
1538 1541 1541 1534 1529 1525 1523 1524 1525 1525 1526 1526 1526 1527 1525 1526 1527 1528 1530 1533 1535 1537 1538 1539 1540 1543 1545 1548 1550 1552 1553 1554 1556 1557 1558 1558 1559 1559 1559 1559 1559 1559 1559 1559 1559 1558 1558 1557 1557
1537 1541 1535 1527 1525 1524 1523 1523 1523 1523 1523 1523 1524 1524 1522 1523 1524 1524 1525 1527 1529 1531 1533 1535 1537 1539 1541 1543 1545 1547 1549 1551 1552 1554 1555 1556 1556 1557 1557 1557 1557 1557 1557 1557 1557 1556 1556 1555 1555
1533 1533 1528 1525 1524 1524 1524 1522 1521 1520 1518 1517 1518 1517 1515 1517 1519 1520 1521 1522 1524 1526 1528 1530 1533 1536 1537 1539 1541 1543 1545 1547 1549 1550 1552 1553 1553 1554 1554 1554 1555 1555 1554 1554 1554 1554 1553 1553 1552
1531 1528 1526 1524 1523 1524 1523 1521 1518 1515 1511 1513 1513 1513 1509 1510 1511 1513 1515 1517 1520 1521 1523 1526 1529 1531 1533 1535 1537 1538 1540 1542 1544 1546 1548 1549 1550 1551 1551 1551 1551 1552 1552 1551 1551 1551 1550 1550 1550
1528 1526 1523 1522 1522 1522 1521 1518 1517 1509 1506 1507 1508 1509 1506 1505 1506 1508 1510 1513 1514 1516 1518 1520 1523 1526 1528 1530 1532 1534 1536 1538 1540 1542 1544 1545 1546 1547 1547 1547 1547 1547 1548 1548 1548 1548 1547 1547 1547
1526 1524 1522 1519 1518 1518 1517 1513 1513 1500 1500 1501 1501 1502 1502 1500 1501 1503 1505 1506 1507 1509 1512 1515 1517 1520 1522 1525 1527 1529 1531 1533 1535 1537 1539 1540 1541 1542 1543 1543 1543 1544 1544 1544 1544 1544 1544 1544 1543
1527 1525 1519 1511 1512 1513 1515 1511 1505 1495 1496 1496 1495 1495 1496 1496 1497 1497 1498 1500 1502 1504 1506 1509 1512 1515 1517 1519 1521 1524 1526 1528 1529 1531 1534 1535 1536 1537 1538 1538 1539 1540 1540 1540 1540 1540 1540 1540 1539
1525 1524 1521 1506 1507 1511 1518 1511 1497 1495 1493 1491 1489 1489 1489 1489 1489 1490 1493 1495 1498 1500 1502 1503 1506 1508 1511 1513 1516 1518 1520 1522 1524 1525 1527 1529 1531 1532 1532 1533 1534 1535 1535 1535 1535 1535 1535 1535 1534
1522 1524 1518 1511 1508 1509 1513 1506 1490 1492 1489 1485 1483 1482 1483 1483 1483 1483 1486 1489 1492 1495 1497 1499 1500 1502 1505 1508 1510 1513 1514 1516 1517 1518 1520 1521 1523 1525 1526 1526 1528 1529 1529 1529 1529 1529 1529 1529 1528
1527 1526 1521 1518 1508 1506 1507 1499 1486 1485 1483 1479 1477 1476 1476 1477 1478 1478 1479 1483 1486 1490 1493 1494 1496 1497 1500 1503 1505 1506 1508 1509 1510 1511 1512 1514 1516 1517 1519 1520 1521 1522 1521 1521 1522 1522 1522 1523 1522
1524 1526 1525 1515 1505 1506 1505 1497 1486 1480 1478 1476 1475 1474 1474 1473 1474 1475 1475 1478 1481 1485 1487 1489 1490 1491 1494 1495 1496 1497 1498 1500 1502 1503 1505 1506 1507 1509 1510 1511 1512 1513 1513 1513 1515 1515 1515 1515 1516
1524 1526 1521 1511 1504 1507 1502 1493 1482 1476 1476 1476 1475 1475 1474 1473 1472 1473 1474 1475 1477 1480 1482 1484 1484 1486 1487 1488 1490 1492 1493 1495 1496 1497 1497 1498 1499 1500 1501 1502 1503 1504 1504 1505 1505 1506 1506 1507 1508
1521 1522 1519 1517 1510 1502 1501 1496 1480 1476 1475 1477 1477 1477 1476 1475 1474 1474 1474 1475 1476 1476 1477 1479 1480 1481 1481 1483 1486 1487 1488 1488 1488 1488 1488 1489 1490 1491 1491 1492 1493 1494 1494 1494 1495 1496 1497 1497 1498
1523 1515 1517 1518 1521 1517 1509 1518 1490 1477 1478 1479 1480 1479 1478 1477 1476 1475 1475 1475 1474 1474 1474 1475 1476 1476 1477 1479 1479 1479 1479 1477 1477 1480 1481 1482 1482 1482 1482 1482 1483 1483 1484 1484 1485 1486 1487 1488 1487
1517 1514 1516 1517 1520 1521 1508 1513 1496 1477 1482 1482 1482 1481 1480 1479 1477 1476 1475 1474 1473 1472 1471 1471 1472 1472 1473 1473 1473 1473 1472 1472 1473 1474 1474 1473 1473 1473 1473 1473 1473 1473 1473 1473 1475 1475 1476 1476 1477
1517 1516 1511 1514 1519 1524 1502 1506 1501 1483 1482 1482 1482 1482 1481 1480 1478 1477 1475 1473 1471 1470 1469 1468 1468 1468 1468 1468 1468 1467 1467 1467 1467 1467 1466 1465 1465 1464 1463 1463 1463 1463 1462 1463 1464 1465 1466 1466 1466
1519 1521 1522 1522 1528 1516 1499 1503 1498 1479 1477 1479 1481 1481 1481 1480 1478 1476 1474 1472 1470 1469 1467 1466 1465 1464 1464 1464 1464 1463 1462 1462 1461 1460 1460 1459 1457 1455 1453 1454 1453 1452 1452 1453 1454 1454 1454 1455 1454
1516 1520 1530 1534 1525 1514 1499 1503 1488 1474 1474 1477 1479 1480 1480 1479 1478 1476 1475 1472 1470 1468 1466 1464 1463 1462 1461 1460 1459 1458 1457 1456 1454 1453 1452 1451 1449 1447 1446 1445 1443 1442 1442 1442 1443 1443 1443 1444 1443
1516 1516 1517 1525 1521 1520 1505 1488 1476 1471 1474 1476 1477 1477 1478 1478 1477 1476 1475 1473 1471 1468 1466 1464 1462 1460 1459 1457 1455 1454 1452 1450 1448 1446 1444 1442 1441 1440 1439 1437 1434 1432 1432 1432 1432 1431 1431 1432 1433
1518 1519 1521 1525 1528 1526 1506 1494 1488 1476 1476 1475 1475 1476 1476 1477 1477 1476 1475 1473 1471 1469 1466 1464 1461 1459 1456 1454 1452 1449 1447 1444 1441 1439 1436 1433 1431 1431 1429 1427 1425 1423 1422 1421 1421 1420 1420 1421 1420
1521 1520 1520 1520 1517 1526 1523 1504 1476 1474 1473 1474 1474 1475 1476 1476 1476 1476 1475 1473 1471 1468 1466 1463 1460 1456 1453 1451 1448 1445 1441 1438 1435 1432 1428 1425 1423 1421 1418 1417 1415 1412 1411 1410 1409 1408 1408 1409 1409
1508 1510 1513 1523 1518 1511 1516 1502 1472 1470 1471 1473 1475 1475 1475 1475 1475 1475 1473 1471 1469 1467 1464 1461 1458 1454 1450 1446 1443 1439 1436 1432 1428 1424 1421 1417 1414 1411 1408 1406 1404 1402 1400 1399 1397 1396 1396 1397 1397